User: anonymous   Login
Location: Clanezzo
(45.7500°N, 9.6000°E)
Time: 03:02:23
(UTC+00:00)
Language:

UKube-1 - Orbit

View from above orbital plane
View from above orbital plane
View from above satellite
View from above satellite

Ground track
Ground track

The orbit data is extracted from the following two-line orbital elements,

1 40074U 14037F   22179.39883643  .00001534  00000-0  18492-3 0  9995
2 40074  98.3815  60.6414 0003082 263.5186  96.5686 14.85438358431698
Epoch (UTC): 28 June 2022 09:34:19
Eccentricity: 0.0003082
inclination: 98.3815°
perigee height: 610 km
apogee height: 614 km
right ascension of ascending node: 60.6414°
argument of perigee: 263.5186°
revolutions per day: 14.85438358
mean anomaly at epoch: 96.5686°
orbit number at epoch: 43169

The dashed part of the orbit path shows where the satellite is in the earth's shadow,  

DLR